Vertical_Velocity
-2 -2 -4 -2 -5 -5 -2 -4 -3 -2 -0 -1 -4 -3 -3 -7 -4 -1 2 -3 1 1 -2 3 7 -1 -1 1 1 -2 1 -7 -3 6 2 2 -1 -2 -1 2 -1 1 -4 -1 -2
-2 1 -2 -0 0 -0 -2 0 -2 -1 -3 -2 1 -1 1 -6 -7 -4 1 3 -2 -3 1 5 4 6 -2 2 -0 2 -7 -4 4 2 3 5 3 1 -1 4 -1 -0 -3 -1 0
1 -0 2 -0 0 1 -2 1 -3 -1 1 -3 -1 0 -1 -4 -11 0 -1 2 6 -1 -4 5 4 3 2 1 -4 0 -9 3 2 2 2 3 1 1 1 -1 3 1 4 -5 -1
-3 -4 -3 4 2 0 -1 -1 0 1 0 -2 0 2 -1 -4 -11 2 2 3 1 4 -1 2 0 5 0 -2 -2 -1 0 1 1 0 -0 4 2 1 2 0 -3 -2 2 1 -1
-4 -5 -5 -4 -4 -3 -2 -4 0 -1 8 6 -1 -1 1 -5 -24 14 -2 -1 -1 5 4 -0 3 1 3 -0 3 -3 1 3 1 1 -3 -3 4 1 -4 8 1 -2 -5 -2 1
-2 0 -5 -4 -4 -5 -2 1 -8 -3 8 -1 2 -5 1 -48 21 2 1 1 2 -0 -1 8 -1 8 2 3 -0 -1 -2 -3 -3 3 -2 -2 -3 6 -3 8 7 2 -2 -2 -1
-3 -8 -3 -3 -6 -5 -3 -1 3 -3 -2 3 7 -2 -13 -14 3 5 -3 9 5 -0 5 1 9 4 1 5 2 1 -1 -3 -1 -0 -4 2 -6 -14 9 0 3 -1 -1 -3 -2
-3 -4 -2 -8 -2 -9 -3 -4 -1 -2 -2 1 3 3 -45 6 19 -7 2 5 2 2 -1 3 3 8 5 -1 3 2 3 2 -5 1 4 5 -12 2 -2 -2 2 6 -4 -1 -1
-2 -3 -6 -4 -3 -6 -7 -3 -0 -5 -5 -3 3 3 -16 11 6 14 -1 8 8 4 3 0 5 6 7 1 2 0 -2 -4 -2 0 2 1 -3 1 -1 -1 -0 3 3 -1 -0
-2 -5 -3 -3 -4 -5 -6 -8 3 1 -2 0 -1 3 -0 7 4 7 7 7 6 4 4 2 5 4 1 -1 -12 -8 -2 -3 -3 1 3 2 -2 -1 -0 -2 1 3 4 1 0
1 -2 -6 -3 -3 -6 -7 -10 -14 -2 7 2 4 -14 -14 0 9 11 6 5 4 4 -1 2 -1 -15 3 -1 2 6 0 1 0 2 1 -3 -1 6 1 0 1 2 -1 -0 3
2 -3 -2 -7 -2 -2 -4 -5 -0 -5 -37 -1 1 -6 -11 17 -0 7 4 8 3 -0 1 4 -8 4 8 7 6 6 3 -1 -0 -1 3 2 -2 -0 0 0 -1 2 1 -1 1
-11 1 -4 -7 -1 -1 -6 -1 -3 -0 -4 -3 2 4 3 7 2 -4 6 0 2 1 1 -2 -1 3 3 3 1 1 3 -2 -0 2 3 -2 -8 -8 -6 -1 3 -0 1 0 2
-7 6 -5 -6 1 -3 -2 2 1 0 -1 1 1 3 5 2 -13 11 6 11 2 -2 3 4 -3 2 5 2 1 1 -1 0 3 3 -1 0 -8 -2 -1 0 2 -1 -0 0 1
2 -6 0 -6 -8 -5 -3 -2 -1 1 -1 1 6 1 -3 8 7 -10 10 18 -5 -8 1 -5 4 -3 0 -5 4 -7 3 4 3 3 3 2 -0 -2 2 -1 -1 -0 -0 2 1
-5 -11 -1 4 1 -3 -2 -0 -4 -1 -13 -5 2 -9 -2 -1 2 5 4 5 16 8 7 8 -8 6 3 -1 8 2 3 2 2 -1 -1 -4 -0 -1 3 1 -0 -0 -0 0 0
2 -13 -1 -2 -6 -0 -1 -1 -3 -4 4 -11 -17 -6 5 6 0 1 -5 -4 -7 3 4 0 10 -0 -0 8 0 4 3 -3 -4 -2 -9 1 2 -7 -0 -2 1 3 -2 -2 1
-12 -8 -2 2 -4 -1 -2 -1 1 4 -2 5 -2 0 -3 2 5 11 5 -1 7 4 9 -4 8 3 6 2 -4 3 1 -8 -6 -3 -4 2 -4 -3 -3 -1 -3 -0 0 1 -1
-6 -4 -3 -0 -0 -1 -2 -1 2 2 3 -2 1 1 -0 -4 -1 10 1 2 4 9 5 -1 -0 3 -3 0 1 -5 3 2 -2 1 -1 -1 -3 -2 -2 -0 2 0 0 -2 0
-8 -8 -5 -1 -3 -3 -3 -0 -3 2 -1 2 2 3 -1 -1 -1 -1 1 5 -3 -3 9 0 -4 4 4 2 6 0 3 -2 -1 -5 -1 -2 -1 -5 -4 -2 -0 -2 -1 0 1
-7 -10 -7 -0 -2 0 -1 -1 -2 4 1 2 0 -0 2 1 -1 20 7 15 12 2 4 0 5 1 3 0 -5 -2 -3 -2 1 0 -5 -2 -3 1 -1 -0 0 -0 1 -0 0
-11 -6 -3 4 0 -0 -1 4 3 0 2 -0 3 1 2 -1 4 -1 3 6 8 10 3 2 0 -1 0 1 -1 -1 1 4 0 -2 -0 1 -7 -2 -1 -2 -2 0 1 -0 -2
-6 -6 -0 -2 -10 -6 3 6 7 3 1 -2 1 1 4 4 -2 3 -0 -1 -1 1 -0 0 3 -1 1 -0 -2 -2 -1 -1 0 2 -3 -3 -5 -2 -1 -0 0 -1 -2 -1 -1
-10 -9 -4 0 -2 -0 -5 4 -5 1 4 1 -1 -2 1 3 -2 -3 -3 2 -1 2 -0 1 -1 -1 -6 -3 0 -1 -1 2 5 1 -3 -11 -3 -2 -2 -2 -1 -0 -1 -1 -3
-8 -3 -2 -11 -1 -1 2 -0 -1 -3 4 2 -1 -0 1 1 5 -1 -1 -4 -1 -1 -2 0 -1 -1 -1 -2 -3 -1 -0 -0 -2 4 -2 -8 -1 0 2 1 -0 -1 -2 -3 -3
-2 -2 -0 -1 3 -0 -1 -1 -2 2 2 0 1 -2 -2 -1 3 1 -1 -1 -2 -1 -0 1 -1 0 0 -0 -0 -4 0 0 1 -1 -2 0 -11 4 3 2 -1 -3 -2 -2 -1
-7 -4 -3 6 1 -1 0 0 -4 2 12 8 1 0 1 -0 -2 -1 1 2 2 1 -2 -1 -1 -1 1 -1 -1 -4 -0 -0 0 0 3 -2 6 2 -3 -2 -0 -2 -1 -1 -0
Height
3119 3116 3112 3108 3105 3101 3098 3094 3091 3088 3085 3083 3081 3079 3076 3076 3076 3075 3076 3075 3074 3072 3072 3072 3072 3072 3073 3076 3077 3079 3080 3078 3081 3082 3082 3083 3085 3088 3089 3090 3091 3092 3094 3096 3096
3112 3108 3104 3101 3096 3093 3089 3086 3083 3080 3076 3074 3071 3069 3067 3064 3065 3067 3069 3067 3067 3064 3064 3067 3067 3065 3067 3070 3070 3071 3072 3075 3078 3079 3080 3080 3082 3083 3086 3086 3088 3089 3090 3092 3093
3105 3101 3096 3092 3088 3084 3080 3077 3073 3070 3067 3065 3062 3060 3057 3055 3054 3057 3059 3058 3059 3058 3058 3060 3060 3060 3060 3062 3063 3064 3063 3071 3073 3074 3076 3076 3077 3079 3080 3081 3083 3086 3086 3088 3090
3098 3092 3087 3083 3078 3075 3070 3066 3063 3060 3057 3054 3052 3050 3048 3048 3049 3049 3050 3051 3052 3052 3052 3053 3054 3054 3054 3054 3058 3060 3061 3065 3068 3069 3070 3072 3072 3074 3076 3078 3077 3079 3082 3083 3085
3092 3086 3082 3077 3071 3066 3062 3058 3054 3050 3047 3045 3042 3040 3038 3037 3039 3044 3041 3042 3043 3044 3045 3047 3048 3049 3050 3051 3054 3053 3057 3060 3062 3063 3064 3065 3067 3068 3070 3074 3072 3072 3075 3079 3081
3085 3080 3075 3069 3063 3058 3053 3048 3043 3039 3035 3033 3030 3028 3027 3025 3032 3033 3034 3035 3035 3038 3038 3040 3043 3046 3046 3047 3049 3048 3050 3054 3055 3057 3058 3060 3062 3061 3065 3070 3066 3066 3069 3072 3075
3079 3073 3068 3062 3056 3050 3044 3039 3034 3029 3025 3021 3018 3015 3014 3015 3020 3023 3026 3030 3029 3030 3033 3036 3038 3041 3041 3044 3043 3044 3047 3048 3049 3053 3054 3056 3053 3052 3061 3061 3061 3059 3063 3066 3070
3072 3067 3061 3055 3049 3042 3037 3031 3026 3021 3016 3012 3008 3003 2998 3006 3011 3014 3015 3021 3021 3024 3026 3029 3032 3036 3036 3039 3039 3041 3043 3042 3045 3049 3049 3053 3043 3051 3052 3053 3055 3054 3056 3060 3062
3066 3060 3054 3048 3042 3036 3031 3024 3019 3013 3008 3004 3000 2994 2992 2995 2998 3004 3007 3011 3015 3017 3019 3024 3028 3030 3031 3033 3037 3035 3034 3037 3040 3042 3043 3044 3043 3046 3047 3049 3051 3052 3052 3054 3055
3060 3054 3048 3043 3037 3029 3023 3016 3012 3007 3003 2997 2993 2994 2991 2990 2991 2992 2997 3003 3008 3010 3014 3019 3022 3022 3024 3027 3025 3029 3032 3033 3035 3038 3039 3039 3041 3044 3044 3046 3048 3049 3049 3050 3052
3055 3049 3043 3038 3030 3023 3015 3007 3003 2998 2993 2993 2991 2986 2986 2987 2987 2990 2993 2997 3001 3005 3008 3013 3016 3012 3017 3023 3026 3029 3030 3031 3032 3034 3034 3035 3038 3040 3042 3042 3044 3045 3046 3047 3047
3052 3045 3038 3031 3026 3018 3011 3003 2999 2994 2978 2985 2979 2977 2979 2985 2984 2985 2990 2995 2996 2999 3006 3010 3007 3014 3020 3023 3024 3026 3027 3028 3030 3030 3032 3032 3033 3036 3037 3037 3038 3040 3040 3041 3041
3048 3040 3034 3025 3020 3014 3006 3000 2996 2992 2984 2978 2975 2972 2974 2979 2977 2982 2988 2991 2994 2998 3002 3006 3009 3010 3015 3018 3020 3021 3022 3025 3027 3028 3029 3029 3026 3028 3030 3029 3029 3032 3034 3035 3037
3042 3036 3028 3020 3016 3007 3002 2997 2993 2989 2986 2980 2976 2975 2974 2972 2972 2979 2984 2991 2994 2996 3003 3005 3007 3009 3011 3013 3017 3018 3019 3022 3024 3026 3027 3026 3023 3022 3023 3023 3023 3024 3027 3029 3032
3038 3032 3024 3015 3009 3004 2999 2994 2989 2990 2990 2982 2977 2976 2973 2974 2974 2974 2981 2986 2990 2995 3000 3001 3003 3005 3008 3010 3014 3015 3018 3020 3021 3023 3024 3023 3025 3015 3017 3017 3020 3021 3023 3024 3026
3035 3028 3020 3014 3009 3003 2996 2992 2990 2992 2987 2981 2979 2975 2973 2971 2973 2972 2974 2980 2988 2992 2995 2998 3000 3002 3005 3009 3012 3014 3015 3018 3019 3021 3021 3018 3021 3011 3013 3016 3017 3018 3020 3021 3022
3031 3024 3017 3010 3005 3000 2995 2992 2992 2988 2987 2984 2977 2972 2969 2969 2971 2973 2975 2978 2982 2989 2990 2994 2997 2999 3002 3006 3007 3011 3013 3019 3023 3023 3021 3015 3016 3008 3012 3014 3016 3017 3017 3019 3020
3028 3021 3016 3010 3004 2999 2994 2993 2991 2988 2986 2983 2978 2975 2973 2972 2972 2969 2974 2976 2978 2983 2984 2989 2996 2997 2999 3003 3006 3008 3011 3014 3025 3024 3017 3014 3010 3006 3008 3011 3013 3014 3015 3015 3017
3024 3020 3015 3009 3003 2998 2995 2992 2991 2990 2988 2983 2979 2976 2976 2974 2974 2972 2973 2974 2976 2977 2984 2985 2990 2992 2995 2999 3004 3005 3009 3013 3013 3015 3016 3009 3007 3006 3005 3007 3009 3011 3011 3012 3013
3020 3016 3013 3008 3003 2998 2996 2993 2992 2989 2987 2985 2982 2980 2977 2974 2972 2971 2968 2970 2973 2977 2980 2981 2988 2991 2993 2998 3001 3002 3006 3010 3012 3021 3020 3005 3004 3000 3002 3004 3006 3007 3008 3008 3008
3018 3014 3012 3007 3004 3000 2996 2993 2990 2989 2987 2985 2983 2980 2978 2974 2971 2966 2968 2969 2971 2973 2978 2980 2983 2991 2993 2994 2997 3001 3003 3006 3008 3009 3011 3011 3000 2999 3000 3002 3004 3004 3005 3005 3005
3016 3013 3011 3008 3006 3000 2996 2993 2991 2988 2987 2985 2983 2980 2978 2975 2971 2969 2968 2968 2970 2972 2974 2978 2982 2987 2990 2991 2994 2998 3001 3003 3004 3006 3006 3005 3000 2998 2999 3001 3002 3002 3002 3001 3000
3015 3013 3011 3007 3003 2999 2997 2993 2990 2988 2987 2985 2982 2980 2979 2977 2976 2973 2973 2973 2973 2974 2976 2979 2982 2985 2989 2993 2993 2994 2997 3000 3001 3003 3002 3004 2998 2996 2997 2998 2999 2998 2998 2997 2996
3015 3011 3010 3006 3004 3001 2997 2994 2990 2988 2987 2985 2982 2981 2979 2978 2977 2976 2974 2973 2974 2975 2976 2978 2979 2980 2984 2985 2989 2992 2994 2996 2998 2998 2997 2995 2994 2995 2996 2996 2994 2994 2993 2992 2990
3015 3012 3009 3006 3003 3001 2998 2995 2991 2988 2988 2984 2983 2981 2980 2978 2977 2976 2975 2975 2975 2975 2977 2978 2979 2980 2983 2985 2987 2989 2991 2992 2992 2994 2993 2991 2991 2992 2992 2991 2990 2989 2987 2985 2984
3014 3012 3009 3006 3003 3000 2997 2995 2991 2988 2987 2985 2983 2981 2980 2979 2979 2978 2978 2978 2977 2977 2977 2977 2978 2979 2981 2982 2983 2984 2986 2986 2987 2987 2986 2986 2984 2988 2987 2985 2985 2983 2981 2979 2977
3011 3011 3007 3005 3001 2999 2996 2994 2990 2988 2985 2984 2982 2981 2981 2980 2979 2977 2976 2975 2975 2975 2976 2977 2977 2978 2980 2981 2982 2981 2979 2980 2981 2981 2981 2980 2981 2981 2979 2979 2978 2977 2975 2973 2972